Location: Perryvale
(54.4667°N, 113.3833°W)
Time: 20:23:29
(UTC+00:00)

Transit 2A - Pass Details

Date: 24 May 2024
Orbit: 592 x 959 km, 66.7° (Epoch: 19 June)

Event Time Altitude Azimuth Distance (km) Brightness Sun altitude
Exits shadow 05:20:53 11° 170° (S) 2,018 7.6 -9.7°
Maximum altitude 05:24:41 28° 113° (ESE) 1,307 6.8 -10.0°
Drops below altitude 10° 05:29:03 10° 56° (NE) 2,287 8.5 -10.3°
Sets 05:31:51 0° 45° (NE) 3,287 9.5 -10.5°
